Content
SEND FEEDBACK

Daily
Averages
Monthly
Summary
United States of America

BERGLAND, MICHIGAN


Home > North America > United States > Michigan
Elevation: 1314 feet     Latitude: 46 34N     Longitude: 089 33W

WEATHER
 
SELECT A DAY
Number of Records: 443,586;   Date Range: 1/1/95 - 7/20/14
 
SHARE

PRINT THIS DATA

[ ← Previous Day ]
WEATHER ALMANAC - FEBRUARY 13, 2013
[ Next Day → ]
[ °C ]   °F
Weather ElementAverageHighLow
Temperature28.5 °F37.4 °F (12:55 pm)21.2 °F (7:35 am)
Dewpoint20.4 °F24.8 °F (12:55 pm)15.8 °F (7:15 am)
Humidity72.1 %86 % (8:35 am)52 % (1:15 pm)
Barometer29.60 in29.65 in (12:35 am)29.55 in (12:55 pm)
Wind Speed6.4 mph13.8 mph (1:15 pm)
Weather ElementAverage
Visibility10 mi
Wind DirectionSW (220.1 °)

Weather ElementTotal
Precipitation0.18 in
Heating Degree Days35.7 (Base 65)
Averaged from 67 records on February 13, 2013
WEATHER CONDITIONS BREAKOUT
WIND DIRECTION BREAKOUT
WEATHER BY HOUR - FEBRUARY 13, 2013
[ °C ]   °F
Local TimeTemperatureDewpointHumidityBarometerVisibilityWind DirectionWind SpeedGust SpeedPrecipitationEventsConditions
12:35 AM24.8 °F17.6 °F74 %29.65 in10.0 miSW (230°)6.9 mphOvercast
12:55 AM24.8 °F17.6 °F74 %29.65 in10.0 miSW (220°)9.2 mphMostly Cloudy
1:15 AM24.8 °F17.6 °F74 %29.64 in10.0 miSW (220°)9.2 mphOvercast
1:35 AM24.8 °F19.4 °F80 %29.65 in10.0 miSW (230°)5.8 mphOvercast
1:55 AM24.8 °F17.6 °F74 %29.65 in10.0 miSW (230°)5.8 mphOvercast
2:15 AM26.6 °F19.4 °F74 %29.64 in10.0 miWSW (240°)9.2 mphOvercast
2:35 AM26.6 °F19.4 °F74 %29.64 in10.0 miWSW (240°)10.4 mphOvercast
2:55 AM26.6 °F19.4 °F74 %29.64 in10.0 miWSW (250°)10.4 mphOvercast
3:15 AM26.6 °F17.6 °F69 %29.63 in10.0 miWSW (240°)9.2 mphOvercast
3:35 AM26.6 °F17.6 °F69 %29.63 in10.0 miWSW (250°)8.1 mphOvercast
3:55 AM26.6 °F17.6 °F69 %29.63 in10.0 miWSW (240°)8.1 mphOvercast
4:15 AM26.6 °F17.6 °F69 %29.63 in10.0 miSW (230°)4.6 mphOvercast
4:35 AM24.8 °F17.6 °F74 %29.63 in10.0 miSW (230°)3.5 mphOvercast
4:55 AM24.8 °F17.6 °F74 %29.63 in10.0 miSW (220°)3.5 mphOvercast
5:15 AM24.8 °F17.6 °F74 %29.63 in10.0 miSW (220°)4.6 mphOvercast
5:35 AM24.8 °F17.6 °F74 %29.63 in10.0 miSW (220°)4.6 mphOvercast
5:55 AM24.8 °F17.6 °F74 %29.62 in10.0 miSSW (200°)3.5 mphOvercast
6:15 AM24.8 °F17.6 °F74 %29.62 in10.0 miSSW (210°)6.9 mphOvercast
6:35 AM24.8 °F17.6 °F74 %29.61 in10.0 miSSW (210°)8.1 mphOvercast
6:55 AM24.8 °F17.6 °F74 %29.61 in10.0 miSW (220°)5.8 mphMostly Cloudy
7:15 AM23.0 °F15.8 °F74 %29.61 in10.0 miSW (220°)6.9 mphMostly Cloudy
7:35 AM21.2 °F15.8 °F80 %29.61 in10.0 miSW (220°)5.8 mphMostly Cloudy
7:55 AM21.2 °F15.8 °F80 %29.61 in10.0 miSSW (210°)4.6 mphMostly Cloudy
8:15 AM21.2 °F15.8 °F80 %29.60 in10.0 miSW (220°)4.6 mphScattered Clouds
8:35 AM21.2 °F17.6 °F86 %29.61 in10.0 miSW (230°)6.9 mphScattered Clouds
8:55 AM24.8 °F17.6 °F74 %29.60 in10.0 miSW (220°)5.8 mphMostly Cloudy
9:15 AM24.8 °F15.8 °F69 %29.60 in10.0 miWSW (240°)4.6 mphOvercast
9:35 AM26.6 °F17.6 °F69 %29.60 in10.0 miSW (220°)8.1 mphMostly Cloudy
9:55 AM26.6 °F17.6 °F69 %29.60 in10.0 miSW (230°)6.9 mphClear
10:15 AM28.4 °F17.6 °F64 %29.59 in10.0 miSSW (210°)6.9 mphClear
10:35 AM28.4 °F19.4 °F69 %29.59 in10.0 miSSW (200°)6.9 mphClear
10:55 AM30.2 °F19.4 °F64 %29.59 in10.0 miCalmClear
11:15 AM32.0 °F19.4 °F60 %29.58 in10.0 miSW (220°)4.6 mphClear
11:35 AM33.8 °F21.2 °F60 %29.57 in10.0 miSW (220°)8.1 mph0.02 inClear
11:55 AM35.6 °F21.2 °F56 %29.57 in10.0 miSW (220°)6.9 mph0.03 inClear
12:55 PM37.4 °F24.8 °F60 %29.55 in10.0 miWSW (250°)9.2 mph0.03 inClear
1:15 PM37.4 °F21.2 °F52 %29.56 in10.0 miWest (260°)13.8 mph0.01 inClear
1:55 PM37.4 °F23.0 °F56 %29.55 in10.0 miWSW (250°)8.1 mph0.04 inClear
2:15 PM37.4 °F23.0 °F56 %29.55 in10.0 miWest (260°)11.5 mphClear
2:35 PM37.4 °F23.0 °F56 %29.55 in10.0 miWest (270°)9.2 mph0.01 inClear
2:55 PM37.4 °F24.8 °F60 %29.55 in10.0 miWest (260°)11.5 mph0.02 inClear
3:15 PM37.4 °F24.8 °F60 %29.56 in10.0 miWest (260°)10.4 mphClear
3:35 PM37.4 °F24.8 °F60 %29.55 in10.0 miWest (260°)8.1 mph0.01 inPartly Cloudy
3:55 PM35.6 °F24.8 °F65 %29.55 in10.0 miNNW (330°)5.8 mph0.01 inClear
4:15 PM35.6 °F24.8 °F65 %29.55 in10.0 miNNW (340°)5.8 mphPartly Cloudy
4:35 PM35.6 °F24.8 °F65 %29.56 in10.0 miNNE (20°)5.8 mphMostly Cloudy
4:55 PM33.8 °F23.0 °F65 %29.57 in10.0 miNorth (10°)5.8 mphOvercast
5:35 PM30.2 °F23.0 °F75 %29.58 in10.0 miNorth (360°)3.5 mphOvercast
5:55 PM30.2 °F23.0 °F75 %29.59 in10.0 miNorth (360°)4.6 mphOvercast
6:15 PM30.2 °F24.8 °F80 %29.59 in10.0 miNorth (360°)4.6 mphOvercast
6:35 PM28.4 °F23.0 °F80 %29.59 in10.0 miNorth (360°)4.6 mphOvercast
6:55 PM28.4 °F24.8 °F86 %29.60 in10.0 miNorth (350°)6.9 mphOvercast
7:15 PM28.4 °F23.0 °F80 %29.60 in10.0 miNorth (360°)4.6 mphOvercast
7:35 PM28.4 °F24.8 °F86 %29.60 in10.0 miCalmOvercast
7:55 PM28.4 °F24.8 °F86 %29.60 in10.0 miNNW (340°)4.6 mphOvercast
8:15 PM28.4 °F23.0 °F80 %29.60 in10.0 miNorth (360°)5.8 mphOvercast
8:35 PM28.4 °F23.0 °F80 %29.60 in10.0 miNorth (10°)6.9 mphOvercast
8:55 PM28.4 °F24.8 °F86 %29.60 in10.0 miNorthOvercast
9:15 PM28.4 °F23.0 °F80 %29.61 in10.0 miNorth (350°)4.6 mphOvercast
9:35 PM28.4 °F23.0 °F80 %29.61 in10.0 miNorthOvercast
9:55 PM28.4 °F21.2 °F74 %29.61 in10.0 miNorth (10°)5.8 mphOvercast
10:15 PM28.4 °F21.2 °F74 %29.60 in10.0 miNorth (10°)5.8 mphOvercast
10:35 PM26.6 °F21.2 °F80 %29.60 in10.0 miNorth (360°)3.5 mphOvercast
10:55 PM26.6 °F21.2 °F80 %29.60 in10.0 miNorth (360°)4.6 mphOvercast
11:15 PM26.6 °F21.2 °F80 %29.60 in10.0 miNorth (360°)4.6 mphOvercast
11:35 PM26.6 °F19.4 °F74 %29.60 in10.0 miNNE (20°)4.6 mphOvercast
11:55 PM26.6 °F19.4 °F74 %29.61 in10.0 miNNE (20°)3.5 mphOvercast
Hourly data recorded from KIWD, located miles away from Bergland, Michigan







STORIES FROM OUR PARTNERS